This is the latest recevied weather packets stored in our database for station/object DW9280. If no packets are shown the sender has not sent any weather packets the latest 10 day(s).
| Time | Temp. | Humidity | Pressure | Rain* | Wind** | Luminosity | Snow |
|---|---|---|---|---|---|---|---|
| 1777529042 | 9.44° C | 54% | 1029.9 hPa | 0 mm | - | 54 W/m² | - |
| 1777528745 | 9.44° C | 55% | 1029.8 hPa | 0 mm | - | 62 W/m² | - |
| 1777528442 | 9.44° C | 56% | 1029.9 hPa | 0 mm | - | 28 W/m² | - |
| 1777528143 | 9.44° C | 56% | 1029.9 hPa | 0 mm | - | 28 W/m² | - |
| 1777527845 | 8.89° C | 57% | 1029.9 hPa | 0 mm | - | 26 W/m² | - |
| 1777527640 | 8.89° C | 58% | 1029.8 hPa | 0 mm | - | 26 W/m² | - |
| 1777527244 | 8.89° C | 57% | 1029.8 hPa | 0 mm | - | 25 W/m² | - |
| 1777526945 | 8.89° C | 58% | 1029.7 hPa | 0 mm | - | 25 W/m² | - |
| 1777526643 | 8.33° C | 57% | 1029.7 hPa | 0 mm | - | 23 W/m² | - |
| 1777526427 | 8.33° C | 58% | 1029.6 hPa | 0 mm | - | 21 W/m² | - |
| 1777526044 | 8.33° C | 58% | 1029.5 hPa | 0 mm | - | 21 W/m² | - |
| 1777525744 | 8.33° C | 58% | 1029.6 hPa | 0 mm | - | 19 W/m² | - |
| 1777525442 | 8.33° C | 58% | 1029.5 hPa | 0 mm | - | 19 W/m² | - |
| 1777525231 | 8.33° C | 59% | 1029.5 hPa | 0 mm | - | 18 W/m² | - |
| 1777524842 | 8.33° C | 59% | 1029.5 hPa | 0 mm | - | 16 W/m² | - |
| 1777524544 | 8.33° C | 59% | 1029.4 hPa | 0 mm | - | 16 W/m² | - |
| 1777524246 | 7.78° C | 59% | 1029.4 hPa | 0 mm | - | 14 W/m² | - |
| 1777523943 | 7.78° C | 59% | 1029.4 hPa | 0 mm | - | 12 W/m² | - |
| 1777523642 | 7.78° C | 59% | 1029.5 hPa | 0 mm | - | 11 W/m² | - |
| 1777523346 | 7.78° C | 60% | 1029.4 hPa | 0 mm | - | 9 W/m² | - |
| 1777523043 | 8.33° C | 59% | 1029.4 hPa | 0 mm | - | 7 W/m² | - |
| 1777522744 | 8.33° C | 59% | 1029.2 hPa | 0 mm | - | 5 W/m² | - |
| 1777522445 | 7.78° C | 60% | 1029.1 hPa | 0 mm | - | 5 W/m² | - |
| 1777522148 | 7.78° C | 60% | 1029.1 hPa | 0 mm | - | 0 W/m² | - |
| 1777521926 | 7.78° C | 60% | 1029.2 hPa | 0 mm | - | 0 W/m² | - |
* Rain latest hour (hover to see other rain measurements)
** Current wind speed in m/s (hover to see current wind gust speed)